When you browse on this site, cookies collect data to enhance your experience and personalize the content and advertising you see.
Visit our Privacy Policy to learn more. By continuing to use the site, you agree to this use of cookies and data.
  • In Latvia
  • List of Countries
  • For 7 days
  • Water Temperature
  • Weather Map
  • Weather Widgets
  • user-avatar
    Login

    Hourly Weather Morges

    Today, 17 September, Tuesday

    Time Temperature Precipitation Wind Pressure Humidity
    00:00 +20°C° 0 mm 1 mps 727 mmHg 77%
    01:00 +20°C° 0 mm 1 mps 727 mmHg 78%
    02:00 +20°C° 0 mm 1 mps 727 mmHg 80%
    03:00 +20°C° 0 mm 1 mps 726 mmHg 81%
    04:00 +20°C° 0 mm 1 mps 727 mmHg 81%
    05:00 +20°C° 0 mm 1 mps 727 mmHg 82%
    06:00 +18°C° 0 mm 0 mps 727 mmHg 82%
    07:00 +20°C° 0 mm 0 mps 727 mmHg 73%
    08:00 +24°C° 0 mm 1 mps 727 mmHg 65%
    09:00 +26°C° 0 mm 1 mps 727 mmHg 57%
    10:00 +27°C° 0 mm 1 mps 727 mmHg 53%
    11:00 +27°C° 0 mm 1 mps 727 mmHg 48%
    12:00 +28°C° 0 mm 1 mps 727 mmHg 42%
    13:00 +28°C° 0 mm 1 mps 726 mmHg 45%
    14:00 +28°C° 0 mm 2 mps 726 mmHg 47%
    15:00 +27°C° 0 mm 2 mps 726 mmHg 49%
    16:00 +25°C° 0 mm 2 mps 726 mmHg 59%
    17:00 +21°C° 0 mm 2 mps 726 mmHg 69%
    18:00 +19°C° 0 mm 2 mps 726 mmHg 79%
    19:00 +18°C° 0 mm 2 mps 726 mmHg 82%
    20:00 +18°C° 0 mm 2 mps 726 mmHg 84%
    21:00 +17°C° 0 mm 2 mps 726 mmHg 87%
    22:00 +17°C° 0 mm 3 mps 726 mmHg 88%
    23:00 +17°C° 0 mm 3 mps 726 mmHg 89%

    Tomorrow, 18 September, Wednesday

    Time Temperature Precipitation Wind Pressure Humidity
    00:00 +15°C° 0 mm 4 mps 726 mmHg 90%
    01:00 +15°C° 0 mm 4 mps 726 mmHg 89%
    02:00 +14°C° 0 mm 4 mps 725 mmHg 89%
    03:00 +14°C° 0 mm 4 mps 725 mmHg 88%
    04:00 +13°C° 0 mm 4 mps 725 mmHg 88%
    05:00 +13°C° 0 mm 4 mps 726 mmHg 88%
    06:00 +13°C° 0 mm 4 mps 726 mmHg 88%
    07:00 +14°C° 0 mm 4 mps 726 mmHg 82%
    08:00 +15°C° 0 mm 4 mps 726 mmHg 77%
    09:00 +18°C° 0 mm 4 mps 726 mmHg 72%
    10:00 +19°C° 0 mm 4 mps 726 mmHg 68%
    11:00 +20°C° 0 mm 4 mps 726 mmHg 65%
    12:00 +21°C° 0 mm 5 mps 726 mmHg 61%
    13:00 +21°C° 0 mm 5 mps 726 mmHg 61%
    14:00 +20°C° 0 mm 5 mps 726 mmHg 61%
    15:00 +20°C° 0 mm 5 mps 726 mmHg 61%
    16:00 +19°C° 0 mm 5 mps 726 mmHg 65%
    17:00 +16°C° 0 mm 5 mps 726 mmHg 69%
    18:00 +14°C° 0 mm 4 mps 726 mmHg 73%
    19:00 +13°C° 0 mm 4 mps 726 mmHg 74%
    20:00 +13°C° 0 mm 4 mps 727 mmHg 75%
    21:00 +12°C° 0 mm 4 mps 727 mmHg 76%
    22:00 +11°C° 0 mm 4 mps 727 mmHg 78%
    23:00 +11°C° 0 mm 4 mps 727 mmHg 81%

    Day after tomorrow, 19 September, Thursday

    Time Temperature Precipitation Wind Pressure Humidity
    00:00 +11°C° 0 mm 4 mps 727 mmHg 83%
    01:00 +10°C° 0 mm 4 mps 727 mmHg 84%
    02:00 +10°C° 0 mm 4 mps 727 mmHg 84%
    03:00 +10°C° 0 mm 4 mps 727 mmHg 85%
    04:00 +10°C° 0 mm 4 mps 727 mmHg 85%
    05:00 +8°C° 0 mm 4 mps 727 mmHg 85%
    06:00 +8°C° 0 mm 4 mps 728 mmHg 85%
    07:00 +11°C° 0 mm 4 mps 728 mmHg 79%
    08:00 +13°C° 0 mm 4 mps 728 mmHg 72%
    09:00 +15°C° 0 mm 4 mps 728 mmHg 66%
    10:00 +17°C° 0 mm 4 mps 728 mmHg 62%
    11:00 +17°C° 0 mm 5 mps 728 mmHg 58%
    12:00 +19°C° 0 mm 5 mps 728 mmHg 53%
    13:00 +19°C° 0 mm 5 mps 728 mmHg 53%
    14:00 +19°C° 0 mm 5 mps 728 mmHg 53%
    15:00 +19°C° 0 mm 5 mps 728 mmHg 52%
    16:00 +16°C° 0 mm 5 mps 728 mmHg 58%
    17:00 +14°C° 0 mm 4 mps 728 mmHg 64%
    18:00 +13°C° 0 mm 4 mps 728 mmHg 70%
    19:00 +12°C° 0 mm 4 mps 728 mmHg 75%
    20:00 +11°C° 0 mm 4 mps 729 mmHg 79%
    21:00 +11°C° 0 mm 4 mps 729 mmHg 83%
    22:00 +10°C° 0 mm 3 mps 729 mmHg 86%
    23:00 +10°C° 0 mm 3 mps 729 mmHg 88%

    20 September, Friday

    Time Temperature Precipitation Wind Pressure Humidity
    00:00 +9°C° 0 mm 2 mps 729 mmHg 90%
    01:00 +9°C° 0 mm 2 mps 728 mmHg 91%
    02:00 +9°C° 0 mm 2 mps 728 mmHg 91%
    03:00 +9°C° 0 mm 2 mps 728 mmHg 92%
    04:00 +9°C° 0 mm 2 mps 728 mmHg 91%
    05:00 +9°C° 0 mm 2 mps 728 mmHg 91%
    06:00 +9°C° 0 mm 2 mps 728 mmHg 90%
    07:00 +13°C° 0 mm 2 mps 728 mmHg 83%
    08:00 +15°C° 0 mm 2 mps 728 mmHg 75%
    09:00 +17°C° 0 mm 2 mps 728 mmHg 67%
    10:00 +19°C° 0 mm 2 mps 728 mmHg 63%
    11:00 +20°C° 0 mm 2 mps 728 mmHg 60%
    12:00 +23°C° 0 mm 2 mps 727 mmHg 57%
    13:00 +23°C° 0 mm 2 mps 727 mmHg 58%
    14:00 +23°C° 0 mm 2 mps 727 mmHg 60%
    15:00 +23°C° 0 mm 2 mps 727 mmHg 61%
    16:00 +19°C° 0 mm 2 mps 726 mmHg 69%
    17:00 +17°C° 0 mm 2 mps 726 mmHg 76%
    18:00 +15°C° 0 mm 2 mps 726 mmHg 83%
    19:00 +15°C° 0 mm 2 mps 727 mmHg 83%
    20:00 +14°C° 0 mm 2 mps 727 mmHg 84%
    21:00 +14°C° 0 mm 1 mps 727 mmHg 84%
    22:00 +14°C° 0 mm 1 mps 727 mmHg 85%
    23:00 +14°C° 0 mm 1 mps 727 mmHg 86%

    21 September, Saturday

    Time Temperature Precipitation Wind Pressure Humidity
    00:00 +13°C° 0 mm 1 mps 727 mmHg 87%
    01:00 +13°C° 0 mm 1 mps 727 mmHg 87%
    02:00 +13°C° 0 mm 1 mps 727 mmHg 88%
    03:00 +13°C° 0 mm 1 mps 727 mmHg 88%
    04:00 +14°C° 0 mm 1 mps 726 mmHg 87%
    05:00 +14°C° 0 mm 1 mps 726 mmHg 87%
    06:00 +14°C° 0 mm 1 mps 726 mmHg 86%
    07:00 +18°C° 0 mm 1 mps 726 mmHg 79%
    08:00 +20°C° 0 mm 1 mps 727 mmHg 72%
    09:00 +23°C° 0 mm 1 mps 727 mmHg 65%
    10:00 +24°C° 0 mm 1 mps 726 mmHg 62%
    11:00 +25°C° 0 mm 1 mps 726 mmHg 59%
    12:00 +26°C° 0 mm 1 mps 726 mmHg 56%
    13:00 +25°C° 0.1 mm 1 mps 726 mmHg 63%
    14:00 +24°C° 0.1 mm 1 mps 725 mmHg 69%
    15:00 +22°C° 0.1 mm 1 mps 725 mmHg 76%
    16:00 +21°C° 0 mm 1 mps 725 mmHg 79%
    17:00 +20°C° 0 mm 1 mps 725 mmHg 81%
    18:00 +19°C° 0 mm 1 mps 725 mmHg 84%
    19:00 +19°C° 0 mm 1 mps 725 mmHg 82%
    20:00 +19°C° 0 mm 1 mps 725 mmHg 79%
    21:00 +19°C° 0 mm 1 mps 725 mmHg 77%
    22:00 +19°C° 0 mm 1 mps 725 mmHg 77%
    23:00 +18°C° 0 mm 1 mps 725 mmHg 78%

    22 September, Sunday

    Time Temperature Precipitation Wind Pressure Humidity
    00:00 +18°C° 0 mm 1 mps 725 mmHg 78%
    01:00 +18°C° 0 mm 1 mps 725 mmHg 79%
    02:00 +18°C° 0 mm 1 mps 725 mmHg 79%
    03:00 +16°C° 0 mm 1 mps 724 mmHg 80%
    04:00 +16°C° 0 mm 1 mps 724 mmHg 81%
    05:00 +16°C° 0 mm 1 mps 724 mmHg 82%
    06:00 +18°C° 0 mm 1 mps 724 mmHg 82%
    07:00 +19°C° 0 mm 1 mps 724 mmHg 79%
    08:00 +20°C° 0 mm 1 mps 725 mmHg 76%
    09:00 +21°C° 0 mm 1 mps 725 mmHg 72%
    10:00 +21°C° 0.1 mm 1 mps 725 mmHg 74%
    11:00 +21°C° 0.1 mm 1 mps 724 mmHg 75%
    12:00 +22°C° 0.1 mm 1 mps 724 mmHg 76%
    13:00 +21°C° 0.1 mm 1 mps 724 mmHg 79%
    14:00 +21°C° 0.1 mm 1 mps 723 mmHg 81%
    15:00 +20°C° 0.1 mm 2 mps 723 mmHg 84%
    16:00 +20°C° 0.3 mm 1 mps 723 mmHg 87%
    17:00 +19°C° 0.3 mm 1 mps 723 mmHg 91%
    18:00 +19°C° 0.3 mm 1 mps 723 mmHg 95%
    19:00 +18°C° 1.6 mm 1 mps 723 mmHg 96%
    20:00 +18°C° 1.6 mm 1 mps 724 mmHg 97%
    21:00 +18°C° 1.6 mm 1 mps 724 mmHg 98%
    22:00 +17°C° 3 mm 2 mps 724 mmHg 98%
    23:00 +17°C° 3 mm 2 mps 724 mmHg 97%
    Show more